contact:dominique.lefevre@mio.osupytheas.fr, maurice.libes@osupytheas.fr, didier.mallarino@osupytheas.fr
Project:EMSO http://www.emso-fr.org/EMSO-France
Depth: 2436.0 m
Title:EMSO Ligure Ouest : Data MII capteur MICROCAT
DateTime_Computer,Latitude,Longitude,Temperature,Conductivity,Pressure,DateTime_Instrument
DateTime_Computer,Latitude,Longitude,degC,S m-1,dbar,DateTime_Instrument
2020-07-04T00:02:50Z,42.805,6.029,13.3005,4.60067,2470.03,2020-7-04T02:03:36Z
2020-07-04T00:05:54Z,42.805,6.029,13.3019,4.60072,2470.053,2020-7-04T02:06:40Z
2020-07-04T00:08:57Z,42.805,6.029,13.3004,4.60134,2470.053,2020-7-04T02:09:43Z
2020-07-04T00:12:00Z,42.805,6.029,13.3018,4.60064,2470.03,2020-7-04T02:12:46Z
2020-07-04T00:15:03Z,42.805,6.029,13.2998,4.60105,2470.03,2020-7-04T02:15:49Z
2020-07-04T00:18:07Z,42.805,6.029,13.3004,4.60047,2470.017,2020-7-04T02:18:53Z
2020-07-04T00:21:10Z,42.805,6.029,13.3028,4.60033,2470.017,2020-7-04T02:21:56Z
2020-07-04T00:24:13Z,42.805,6.029,13.3033,4.60046,2470.053,2020-7-04T02:24:59Z
2020-07-04T00:27:17Z,42.805,6.029,13.3056,4.60014,2470.017,2020-7-04T02:28:02Z
2020-07-04T00:30:20Z,42.805,6.029,13.3061,4.60018,2470.03,2020-7-04T02:31:06Z
2020-07-04T00:33:23Z,42.805,6.029,13.3066,4.60025,2470.017,2020-7-04T02:34:09Z
2020-07-04T00:36:27Z,42.805,6.029,13.3038,4.59995,2470.007,2020-7-04T02:37:12Z
2020-07-04T00:39:30Z,42.805,6.029,13.3003,4.59996,2470.04,2020-7-04T02:40:16Z
2020-07-04T00:42:33Z,42.805,6.029,13.3024,4.59999,2470.03,2020-7-04T02:43:19Z
2020-07-04T00:45:36Z,42.805,6.029,13.3031,4.60000,2470.017,2020-7-04T02:46:22Z
2020-07-04T00:48:39Z,42.805,6.029,13.3001,4.60003,2470.03,2020-7-04T02:49:25Z
2020-07-04T00:51:43Z,42.805,6.029,13.3000,4.59986,2470.017,2020-7-04T02:52:28Z
2020-07-04T00:54:46Z,42.805,6.029,13.3004,4.59997,2470.03,2020-7-04T02:55:32Z
2020-07-04T00:57:49Z,42.805,6.029,13.2999,4.60011,2470.03,2020-7-04T02:58:35Z
2020-07-04T01:00:52Z,42.805,6.029,13.2992,4.60029,2470.03,2020-7-04T03:01:38Z
2020-07-04T01:03:56Z,42.805,6.029,13.3003,4.60001,2470.017,2020-7-04T03:04:41Z
2020-07-04T01:06:59Z,42.805,6.029,13.3007,4.60016,2470.017,2020-7-04T03:07:45Z
2020-07-04T01:10:02Z,42.805,6.029,13.2999,4.59999,2470.017,2020-7-04T03:10:48Z
2020-07-04T01:13:05Z,42.805,6.029,13.3004,4.60012,2469.993,2020-7-04T03:13:51Z
2020-07-04T01:16:09Z,42.805,6.029,13.3009,4.60009,2469.993,2020-7-04T03:16:54Z
2020-07-04T01:19:12Z,42.805,6.029,13.3015,4.60017,2469.979,2020-7-04T03:19:58Z
2020-07-04T01:22:15Z,42.805,6.029,13.3026,4.60009,2469.993,2020-7-04T03:23:01Z
2020-07-04T01:25:18Z,42.805,6.029,13.3009,4.60067,2469.993,2020-7-04T03:26:04Z
2020-07-04T01:28:22Z,42.805,6.029,13.3010,4.60027,2470.007,2020-7-04T03:29:07Z
2020-07-04T01:31:25Z,42.805,6.029,13.3017,4.60019,2470.017,2020-7-04T03:32:11Z
2020-07-04T01:34:28Z,42.805,6.029,13.3023,4.60014,2470.007,2020-7-04T03:35:14Z
2020-07-04T01:37:31Z,42.805,6.029,13.3013,4.60001,2470.017,2020-7-04T03:38:17Z
2020-07-04T01:40:35Z,42.805,6.029,13.3043,4.60033,2470.017,2020-7-04T03:41:20Z
2020-07-04T01:43:38Z,42.805,6.029,13.3032,4.60017,2470.053,2020-7-04T03:44:24Z
2020-07-04T01:46:41Z,42.805,6.029,13.3029,4.60019,2470.04,2020-7-04T03:47:27Z
2020-07-04T01:49:44Z,42.805,6.029,13.3015,4.60033,2470.017,2020-7-04T03:50:30Z
2020-07-04T01:52:48Z,42.805,6.029,13.3031,4.60014,2470.04,2020-7-04T03:53:34Z
2020-07-04T01:55:51Z,42.805,6.029,13.3036,4.60022,2470.03,2020-7-04T03:56:37Z
2020-07-04T01:58:54Z,42.805,6.029,13.3026,4.60020,2469.97,2020-7-04T03:59:40Z
2020-07-04T02:01:57Z,42.805,6.029,13.3043,4.60010,2470.03,2020-7-04T04:02:43Z
2020-07-04T02:05:01Z,42.805,6.029,13.3058,4.60024,2470.04,2020-7-04T04:05:47Z
2020-07-04T02:08:04Z,42.805,6.029,13.3041,4.60015,2470.017,2020-7-04T04:08:50Z
2020-07-04T02:11:07Z,42.805,6.029,13.3029,4.60011,2469.993,2020-7-04T04:11:53Z
2020-07-04T02:14:10Z,42.805,6.029,13.3043,4.60009,2469.993,2020-7-04T04:14:56Z
2020-07-04T02:17:14Z,42.805,6.029,13.3048,4.60017,2470.007,2020-7-04T04:18:00Z
2020-07-04T02:20:17Z,42.805,6.029,13.3047,4.60008,2469.993,2020-7-04T04:21:03Z
2020-07-04T02:23:20Z,42.805,6.029,13.3033,4.60011,2469.993,2020-7-04T04:24:06Z
2020-07-04T02:26:24Z,42.805,6.029,13.3031,4.60010,2470.007,2020-7-04T04:27:10Z
2020-07-04T02:29:27Z,42.805,6.029,13.3029,4.60025,2470.017,2020-7-04T04:30:13Z
2020-07-04T02:32:30Z,42.805,6.029,13.3045,4.60013,2470.017,2020-7-04T04:33:16Z
2020-07-04T02:35:33Z,42.805,6.029,13.3038,4.60007,2469.993,2020-7-04T04:36:19Z
2020-07-04T02:38:37Z,42.805,6.029,13.3048,4.60007,2470.017,2020-7-04T04:39:22Z
2020-07-04T02:41:40Z,42.805,6.029,13.3012,4.60041,2469.993,2020-7-04T04:42:26Z
2020-07-04T02:44:43Z,42.805,6.029,13.3030,4.60046,2469.993,2020-7-04T04:45:29Z
2020-07-04T02:47:46Z,42.805,6.029,13.3030,4.60011,2470.007,2020-7-04T04:48:32Z
2020-07-04T02:50:50Z,42.805,6.029,13.3037,4.60022,2470.077,2020-7-04T04:51:35Z
2020-07-04T02:53:53Z,42.805,6.029,13.3006,4.60049,2470.053,2020-7-04T04:54:39Z
2020-07-04T02:56:56Z,42.805,6.029,13.2971,4.60093,2470.04,2020-7-04T04:57:42Z
2020-07-04T02:59:59Z,42.805,6.029,13.2967,4.60026,2470.053,2020-7-04T05:00:45Z
2020-07-04T03:03:03Z,42.805,6.029,13.2970,4.59999,2470.04,2020-7-04T05:03:48Z
2020-07-04T03:06:06Z,42.805,6.029,13.2970,4.60006,2470.017,2020-7-04T05:06:52Z
2020-07-04T03:09:09Z,42.805,6.029,13.2970,4.60001,2470.04,2020-7-04T05:09:55Z
2020-07-04T03:12:12Z,42.805,6.029,13.2967,4.60001,2470.04,2020-7-04T05:12:58Z
2020-07-04T03:15:16Z,42.805,6.029,13.2975,4.59999,2470.04,2020-7-04T05:16:01Z
2020-07-04T03:18:19Z,42.805,6.029,13.2970,4.59994,2470.063,2020-7-04T05:19:05Z
2020-07-04T03:21:22Z,42.805,6.029,13.2970,4.59999,2470.1,2020-7-04T05:22:08Z
2020-07-04T03:24:25Z,42.805,6.029,13.2971,4.59989,2470.04,2020-7-04T05:25:11Z
2020-07-04T03:27:29Z,42.805,6.029,13.2970,4.59995,2470.04,2020-7-04T05:28:14Z
2020-07-04T03:30:32Z,42.805,6.029,13.2967,4.59998,2470.04,2020-7-04T05:31:18Z
2020-07-04T03:33:35Z,42.805,6.029,13.2969,4.59999,2470.063,2020-7-04T05:34:21Z
2020-07-04T03:36:38Z,42.805,6.029,13.2970,4.59996,2470.053,2020-7-04T05:37:24Z
2020-07-04T03:39:42Z,42.805,6.029,13.2968,4.59989,2470.063,2020-7-04T05:40:27Z
2020-07-04T03:42:45Z,42.805,6.029,13.2967,4.59992,2470.077,2020-7-04T05:43:31Z
2020-07-04T03:45:48Z,42.805,6.029,13.2971,4.60002,2470.063,2020-7-04T05:46:34Z
2020-07-04T03:48:51Z,42.805,6.029,13.2971,4.59986,2470.11,2020-7-04T05:49:37Z
2020-07-04T03:51:55Z,42.805,6.029,13.2972,4.59986,2470.1,2020-7-04T05:52:41Z
2020-07-04T03:54:58Z,42.805,6.029,13.2967,4.59988,2470.087,2020-7-04T05:55:44Z
2020-07-04T03:58:01Z,42.805,6.029,13.2969,4.59984,2470.077,2020-7-04T05:58:47Z
2020-07-04T04:01:04Z,42.805,6.029,13.2969,4.59983,2470.1,2020-7-04T06:01:50Z
2020-07-04T04:04:08Z,42.805,6.029,13.2970,4.59988,2470.077,2020-7-04T06:04:54Z
2020-07-04T04:07:11Z,42.805,6.029,13.2967,4.59984,2470.087,2020-7-04T06:07:57Z
2020-07-04T04:10:14Z,42.805,6.029,13.2969,4.59987,2470.077,2020-7-04T06:11:00Z
2020-07-04T04:13:17Z,42.805,6.029,13.2974,4.59986,2470.063,2020-7-04T06:14:03Z
2020-07-04T04:16:21Z,42.805,6.029,13.2966,4.59988,2470.063,2020-7-04T06:17:07Z
2020-07-04T04:19:24Z,42.805,6.029,13.2969,4.59995,2470.087,2020-7-04T06:20:10Z
2020-07-04T04:22:27Z,42.805,6.029,13.2969,4.59993,2470.11,2020-7-04T06:23:13Z
2020-07-04T04:25:31Z,42.805,6.029,13.2971,4.59983,2470.077,2020-7-04T06:26:16Z
2020-07-04T04:28:34Z,42.805,6.029,13.2970,4.59994,2470.11,2020-7-04T06:29:20Z
2020-07-04T04:31:37Z,42.805,6.029,13.2971,4.59996,2470.124,2020-7-04T06:32:23Z
2020-07-04T04:34:40Z,42.805,6.029,13.2973,4.59996,2470.1,2020-7-04T06:35:26Z
2020-07-04T04:37:43Z,42.805,6.029,13.2968,4.59996,2470.11,2020-7-04T06:38:29Z
2020-07-04T04:40:47Z,42.805,6.029,13.2966,4.59993,2470.147,2020-7-04T06:41:32Z
2020-07-04T04:43:50Z,42.805,6.029,13.2971,4.59990,2470.11,2020-7-04T06:44:36Z
2020-07-04T04:46:53Z,42.805,6.029,13.2967,4.59990,2470.11,2020-7-04T06:47:39Z
2020-07-04T04:49:57Z,42.805,6.029,13.2968,4.60010,2470.124,2020-7-04T06:50:42Z
2020-07-04T04:53:00Z,42.805,6.029,13.2969,4.59994,2470.11,2020-7-04T06:53:46Z
2020-07-04T04:56:03Z,42.805,6.029,13.2971,4.59984,2470.133,2020-7-04T06:56:49Z
2020-07-04T04:59:06Z,42.805,6.029,13.2971,4.59978,2470.147,2020-7-04T06:59:52Z
2020-07-04T05:02:09Z,42.805,6.029,13.2969,4.59984,2470.147,2020-7-04T07:02:55Z
2020-07-04T05:05:13Z,42.805,6.029,13.2970,4.59978,2470.133,2020-7-04T07:05:58Z
2020-07-04T05:08:16Z,42.805,6.029,13.2974,4.59980,2470.11,2020-7-04T07:09:02Z
2020-07-04T05:11:19Z,42.805,6.029,13.2971,4.59978,2470.11,2020-7-04T07:12:05Z
2020-07-04T05:14:22Z,42.805,6.029,13.2974,4.59978,2470.133,2020-7-04T07:15:08Z
2020-07-04T05:17:25Z,42.805,6.029,13.2975,4.59985,2470.147,2020-7-04T07:18:11Z
2020-07-04T05:20:29Z,42.805,6.029,13.2971,4.59980,2470.171,2020-7-04T07:21:15Z
2020-07-04T05:23:32Z,42.805,6.029,13.2973,4.59975,2470.156,2020-7-04T07:24:18Z
2020-07-04T05:26:35Z,42.805,6.029,13.2970,4.59976,2470.171,2020-7-04T07:27:21Z
2020-07-04T05:29:38Z,42.805,6.029,13.2971,4.59975,2470.124,2020-7-04T07:30:24Z
2020-07-04T05:32:42Z,42.805,6.029,13.2967,4.59980,2470.147,2020-7-04T07:33:28Z
2020-07-04T05:35:45Z,42.805,6.029,13.2970,4.59981,2470.133,2020-7-04T07:36:31Z
2020-07-04T05:38:48Z,42.805,6.029,13.2971,4.59983,2470.11,2020-7-04T07:39:34Z
2020-07-04T05:41:51Z,42.805,6.029,13.2969,4.59986,2470.156,2020-7-04T07:42:37Z
2020-07-04T05:44:55Z,42.805,6.029,13.2974,4.59977,2470.147,2020-7-04T07:45:40Z
2020-07-04T05:47:58Z,42.805,6.029,13.2968,4.59974,2470.171,2020-7-04T07:48:44Z
2020-07-04T05:51:01Z,42.805,6.029,13.2971,4.59973,2470.147,2020-7-04T07:51:47Z
2020-07-04T05:54:04Z,42.805,6.029,13.2974,4.59973,2470.1,2020-7-04T07:54:50Z
2020-07-04T05:57:08Z,42.805,6.029,13.2973,4.59973,2470.156,2020-7-04T07:57:54Z
2020-07-04T06:00:11Z,42.805,6.029,13.2972,4.59980,2470.133,2020-7-04T08:00:57Z
2020-07-04T06:03:14Z,42.805,6.029,13.2968,4.59981,2470.124,2020-7-04T08:04:00Z
2020-07-04T06:06:17Z,42.805,6.029,13.2964,4.59987,2470.11,2020-7-04T08:07:03Z
2020-07-04T06:09:20Z,42.805,6.029,13.2976,4.59980,2470.11,2020-7-04T08:10:06Z
2020-07-04T06:12:24Z,42.805,6.029,13.2971,4.59980,2470.133,2020-7-04T08:13:10Z
2020-07-04T06:15:27Z,42.805,6.029,13.2971,4.59978,2470.171,2020-7-04T08:16:13Z
2020-07-04T06:18:30Z,42.805,6.029,13.2968,4.59978,2470.124,2020-7-04T08:19:16Z
2020-07-04T06:21:34Z,42.805,6.029,13.2976,4.59981,2470.171,2020-7-04T08:22:19Z
2020-07-04T06:24:37Z,42.805,6.029,13.2971,4.59985,2470.147,2020-7-04T08:25:23Z
2020-07-04T06:27:40Z,42.805,6.029,13.2969,4.59976,2470.133,2020-7-04T08:28:26Z
2020-07-04T06:30:43Z,42.805,6.029,13.2974,4.59976,2470.133,2020-7-04T08:31:29Z
2020-07-04T06:33:46Z,42.805,6.029,13.2971,4.59981,2470.156,2020-7-04T08:34:32Z
2020-07-04T06:36:50Z,42.805,6.029,13.2976,4.59976,2470.156,2020-7-04T08:37:36Z
2020-07-04T06:39:53Z,42.805,6.029,13.2977,4.59976,2470.133,2020-7-04T08:40:39Z
2020-07-04T06:42:56Z,42.805,6.029,13.2974,4.59978,2470.156,2020-7-04T08:43:42Z
2020-07-04T06:46:00Z,42.805,6.029,13.2974,4.59985,2470.156,2020-7-04T08:46:46Z
2020-07-04T06:49:03Z,42.805,6.029,13.2973,4.59980,2470.147,2020-7-04T08:49:49Z
2020-07-04T06:52:06Z,42.805,6.029,13.2974,4.59987,2470.11,2020-7-04T08:52:52Z
2020-07-04T06:55:09Z,42.805,6.029,13.2974,4.59978,2470.133,2020-7-04T08:55:55Z
2020-07-04T06:58:12Z,42.805,6.029,13.2971,4.59980,2470.147,2020-7-04T08:58:58Z
2020-07-04T07:01:16Z,42.805,6.029,13.2971,4.59974,2470.147,2020-7-04T09:02:02Z
2020-07-04T07:04:19Z,42.805,6.029,13.2970,4.59973,2470.133,2020-7-04T09:05:05Z
2020-07-04T07:07:22Z,42.805,6.029,13.2971,4.59973,2470.171,2020-7-04T09:08:08Z
2020-07-04T07:10:26Z,42.805,6.029,13.2979,4.59973,2470.133,2020-7-04T09:11:11Z
2020-07-04T07:13:29Z,42.805,6.029,13.2971,4.59980,2470.11,2020-7-04T09:14:15Z
2020-07-04T07:16:32Z,42.805,6.029,13.2969,4.59985,2470.18,2020-7-04T09:17:18Z
2020-07-04T07:19:35Z,42.805,6.029,13.2974,4.59976,2470.124,2020-7-04T09:20:21Z
2020-07-04T07:22:38Z,42.805,6.029,13.2970,4.59979,2470.133,2020-7-04T09:23:24Z
2020-07-04T07:25:42Z,42.805,6.029,13.2971,4.59974,2470.124,2020-7-04T09:26:28Z
2020-07-04T07:28:45Z,42.805,6.029,13.2972,4.59974,2470.11,2020-7-04T09:29:31Z
2020-07-04T07:31:48Z,42.805,6.029,13.2968,4.59973,2470.11,2020-7-04T09:32:34Z
2020-07-04T07:34:52Z,42.805,6.029,13.2974,4.59974,2470.133,2020-7-04T09:35:38Z
2020-07-04T07:37:55Z,42.805,6.029,13.2968,4.59973,2470.124,2020-7-04T09:38:41Z
2020-07-04T07:40:58Z,42.805,6.029,13.2972,4.59974,2470.124,2020-7-04T09:41:44Z
2020-07-04T07:44:02Z,42.805,6.029,13.2971,4.59974,2470.11,2020-7-04T09:44:48Z
2020-07-04T07:47:05Z,42.805,6.029,13.2967,4.59976,2470.11,2020-7-04T09:47:51Z
2020-07-04T07:50:08Z,42.805,6.029,13.2971,4.59973,2470.124,2020-7-04T09:50:54Z
2020-07-04T07:53:12Z,42.805,6.029,13.2974,4.59974,2470.11,2020-7-04T09:53:58Z
2020-07-04T07:56:15Z,42.805,6.029,13.2971,4.59985,2470.11,2020-7-04T09:57:01Z
2020-07-04T07:59:18Z,42.805,6.029,13.2977,4.59976,2470.124,2020-7-04T10:00:04Z
2020-07-04T08:02:22Z,42.805,6.029,13.2967,4.59974,2470.133,2020-7-04T10:03:08Z
2020-07-04T08:05:25Z,42.805,6.029,13.2970,4.59973,2470.124,2020-7-04T10:06:11Z
2020-07-04T08:08:28Z,42.805,6.029,13.2968,4.59972,2470.11,2020-7-04T10:09:14Z
2020-07-04T08:11:31Z,42.805,6.029,13.2969,4.59973,2470.11,2020-7-04T10:12:17Z
2020-07-04T08:14:35Z,42.805,6.029,13.2970,4.59971,2470.063,2020-7-04T10:15:21Z
2020-07-04T08:17:38Z,42.805,6.029,13.2969,4.59972,2470.1,2020-7-04T10:18:24Z
2020-07-04T08:20:41Z,42.805,6.029,13.2970,4.59971,2470.1,2020-7-04T10:21:27Z
2020-07-04T08:23:44Z,42.805,6.029,13.2971,4.59975,2470.124,2020-7-04T10:24:30Z
2020-07-04T08:26:48Z,42.805,6.029,13.2970,4.59973,2470.11,2020-7-04T10:27:34Z
2020-07-04T08:29:51Z,42.805,6.029,13.2970,4.59972,2470.11,2020-7-04T10:30:37Z
2020-07-04T08:32:54Z,42.805,6.029,13.2972,4.59984,2470.1,2020-7-04T10:33:40Z
2020-07-04T08:35:57Z,42.805,6.029,13.2968,4.59972,2470.063,2020-7-04T10:36:43Z
2020-07-04T08:39:01Z,42.805,6.029,13.2968,4.59972,2470.124,2020-7-04T10:39:46Z
2020-07-04T08:42:04Z,42.805,6.029,13.2971,4.59973,2470.1,2020-7-04T10:42:50Z
2020-07-04T08:45:07Z,42.805,6.029,13.2973,4.59986,2470.063,2020-7-04T10:45:53Z
2020-07-04T08:48:10Z,42.805,6.029,13.2968,4.59972,2470.063,2020-7-04T10:48:56Z
2020-07-04T08:51:14Z,42.805,6.029,13.2973,4.59972,2470.1,2020-7-04T10:52:00Z
2020-07-04T08:54:17Z,42.805,6.029,13.2968,4.59972,2470.04,2020-7-04T10:55:03Z
2020-07-04T08:57:20Z,42.805,6.029,13.2968,4.59973,2470.063,2020-7-04T10:58:06Z
2020-07-04T09:00:23Z,42.805,6.029,13.2971,4.59982,2470.063,2020-7-04T11:01:09Z
2020-07-04T09:03:27Z,42.805,6.029,13.2968,4.59972,2470.077,2020-7-04T11:04:13Z
2020-07-04T09:06:30Z,42.805,6.029,13.2971,4.59971,2470.063,2020-7-04T11:07:16Z
2020-07-04T09:09:33Z,42.805,6.029,13.2969,4.59971,2470.077,2020-7-04T11:10:19Z
2020-07-04T09:12:37Z,42.805,6.029,13.2969,4.59971,2470.04,2020-7-04T11:13:23Z
2020-07-04T09:15:40Z,42.805,6.029,13.2968,4.59972,2470.087,2020-7-04T11:16:26Z
2020-07-04T09:18:43Z,42.805,6.029,13.2971,4.59971,2470.063,2020-7-04T11:19:29Z
2020-07-04T09:21:46Z,42.805,6.029,13.2970,4.59972,2470.04,2020-7-04T11:22:32Z
2020-07-04T09:24:50Z,42.805,6.029,13.2972,4.59972,2470.04,2020-7-04T11:25:36Z
2020-07-04T09:27:53Z,42.805,6.029,13.2970,4.59973,2470.04,2020-7-04T11:28:39Z
2020-07-04T09:30:56Z,42.805,6.029,13.2971,4.59972,2470.053,2020-7-04T11:31:42Z
2020-07-04T09:33:59Z,42.805,6.029,13.2970,4.59972,2470.04,2020-7-04T11:34:45Z
2020-07-04T09:37:03Z,42.805,6.029,13.2968,4.59974,2470.04,2020-7-04T11:37:49Z
2020-07-04T09:40:06Z,42.805,6.029,13.2972,4.59978,2470.03,2020-7-04T11:40:52Z
2020-07-04T09:43:09Z,42.805,6.029,13.2976,4.59976,2470.04,2020-7-04T11:43:55Z
2020-07-04T09:46:12Z,42.805,6.029,13.2971,4.59974,2470.03,2020-7-04T11:46:58Z
2020-07-04T09:49:16Z,42.805,6.029,13.2971,4.59974,2470.03,2020-7-04T11:50:02Z
2020-07-04T09:52:19Z,42.805,6.029,13.2976,4.59975,2470.04,2020-7-04T11:53:05Z
2020-07-04T09:55:22Z,42.805,6.029,13.2974,4.59973,2470.04,2020-7-04T11:56:08Z
2020-07-04T09:58:26Z,42.805,6.029,13.2979,4.59975,2470.077,2020-7-04T11:59:11Z
2020-07-04T10:01:29Z,42.805,6.029,13.2967,4.59976,2469.993,2020-7-04T12:02:15Z
2020-07-04T10:04:32Z,42.805,6.029,13.2971,4.59976,2470.03,2020-7-04T12:05:18Z
2020-07-04T10:07:35Z,42.805,6.029,13.2977,4.59975,2470.017,2020-7-04T12:08:21Z
2020-07-04T10:10:39Z,42.805,6.029,13.2981,4.59975,2470.017,2020-7-04T12:11:24Z
2020-07-04T10:13:42Z,42.805,6.029,13.3014,4.59998,2469.993,2020-7-04T12:14:28Z
2020-07-04T10:16:45Z,42.805,6.029,13.3002,4.59989,2470.003,2020-7-04T12:17:31Z
2020-07-04T10:19:48Z,42.805,6.029,13.3001,4.59999,2470.053,2020-7-04T12:20:34Z
2020-07-04T10:22:52Z,42.805,6.029,13.2998,4.60002,2469.993,2020-7-04T12:23:38Z
2020-07-04T10:25:55Z,42.805,6.029,13.2998,4.60011,2470.017,2020-7-04T12:26:41Z
2020-07-04T10:28:58Z,42.805,6.029,13.2996,4.60003,2469.993,2020-7-04T12:29:44Z
2020-07-04T10:32:01Z,42.805,6.029,13.3007,4.60030,2470.03,2020-7-04T12:32:47Z
2020-07-04T10:35:04Z,42.805,6.029,13.2993,4.60047,2469.993,2020-7-04T12:35:50Z
2020-07-04T10:38:08Z,42.805,6.029,13.2989,4.60032,2470.017,2020-7-04T12:38:54Z
2020-07-04T10:41:11Z,42.805,6.029,13.2995,4.60032,2470.017,2020-7-04T12:41:57Z
2020-07-04T10:44:14Z,42.805,6.029,13.2996,4.60011,2469.97,2020-7-04T12:45:00Z
2020-07-04T10:47:18Z,42.805,6.029,13.2996,4.60030,2470.007,2020-7-04T12:48:03Z
2020-07-04T10:50:21Z,42.805,6.029,13.3010,4.59994,2470.007,2020-7-04T12:51:07Z
2020-07-04T10:53:24Z,42.805,6.029,13.2977,4.59988,2470.03,2020-7-04T12:54:10Z
2020-07-04T10:56:27Z,42.805,6.029,13.2996,4.60001,2469.956,2020-7-04T12:57:13Z
2020-07-04T10:59:31Z,42.805,6.029,13.3029,4.60003,2469.979,2020-7-04T13:00:17Z
2020-07-04T11:02:34Z,42.805,6.029,13.3010,4.60025,2469.947,2020-7-04T13:03:20Z
2020-07-04T11:05:37Z,42.805,6.029,13.2991,4.60008,2469.97,2020-7-04T13:06:23Z
2020-07-04T11:08:40Z,42.805,6.029,13.3004,4.60033,2469.984,2020-7-04T13:09:26Z
2020-07-04T11:11:44Z,42.805,6.029,13.3009,4.60039,2469.993,2020-7-04T13:12:30Z
2020-07-04T11:14:47Z,42.805,6.029,13.2998,4.60055,2469.97,2020-7-04T13:15:33Z
2020-07-04T11:17:50Z,42.805,6.029,13.3008,4.60064,2469.947,2020-7-04T13:18:36Z
2020-07-04T11:20:53Z,42.805,6.029,13.3014,4.60033,2469.97,2020-7-04T13:21:39Z
2020-07-04T11:23:57Z,42.805,6.029,13.2988,4.60057,2469.96,2020-7-04T13:24:42Z
2020-07-04T11:27:00Z,42.805,6.029,13.3009,4.60041,2469.97,2020-7-04T13:27:46Z
2020-07-04T11:30:03Z,42.805,6.029,13.3019,4.60067,2469.97,2020-7-04T13:30:49Z
2020-07-04T11:33:06Z,42.805,6.029,13.2983,4.60052,2469.937,2020-7-04T13:33:52Z
2020-07-04T11:36:10Z,42.805,6.029,13.2991,4.60063,2469.96,2020-7-04T13:36:56Z
2020-07-04T11:39:13Z,42.805,6.029,13.3006,4.60056,2469.947,2020-7-04T13:39:59Z
2020-07-04T11:42:16Z,42.805,6.029,13.3009,4.60049,2469.96,2020-7-04T13:43:02Z
2020-07-04T11:45:19Z,42.805,6.029,13.2994,4.60042,2469.993,2020-7-04T13:46:05Z
2020-07-04T11:48:23Z,42.805,6.029,13.2998,4.60036,2469.947,2020-7-04T13:49:08Z
2020-07-04T11:51:26Z,42.805,6.029,13.3000,4.60052,2469.96,2020-7-04T13:52:12Z
2020-07-04T11:54:29Z,42.805,6.029,13.3000,4.60069,2469.97,2020-7-04T13:55:15Z
2020-07-04T11:57:32Z,42.805,6.029,13.2988,4.60052,2469.923,2020-7-04T13:58:18Z
2020-07-04T12:00:36Z,42.805,6.029,13.2990,4.60059,2469.984,2020-7-04T14:01:22Z
2020-07-04T12:03:39Z,42.805,6.029,13.3003,4.60061,2469.96,2020-7-04T14:04:25Z
2020-07-04T12:06:42Z,42.805,6.029,13.2983,4.60031,2469.97,2020-7-04T14:07:28Z
2020-07-04T12:09:45Z,42.805,6.029,13.2993,4.60057,2469.96,2020-7-04T14:10:31Z
2020-07-04T12:12:49Z,42.805,6.029,13.2989,4.60069,2469.923,2020-7-04T14:13:34Z
2020-07-04T12:15:52Z,42.805,6.029,13.2983,4.60039,2469.984,2020-7-04T14:16:38Z
2020-07-04T12:18:55Z,42.805,6.029,13.2986,4.60062,2469.937,2020-7-04T14:19:41Z
2020-07-04T12:21:59Z,42.805,6.029,13.2997,4.60077,2469.96,2020-7-04T14:22:44Z
2020-07-04T12:25:02Z,42.805,6.029,13.3005,4.60083,2469.96,2020-7-04T14:25:48Z
2020-07-04T12:28:05Z,42.805,6.029,13.2999,4.60067,2469.947,2020-7-04T14:28:51Z
2020-07-04T12:31:08Z,42.805,6.029,13.2991,4.60048,2469.97,2020-7-04T14:31:54Z
2020-07-04T12:34:11Z,42.805,6.029,13.2995,4.60043,2469.947,2020-7-04T14:34:57Z
2020-07-04T12:37:15Z,42.805,6.029,13.2987,4.60049,2469.947,2020-7-04T14:38:01Z
2020-07-04T12:40:18Z,42.805,6.029,13.2992,4.60022,2469.984,2020-7-04T14:41:04Z
2020-07-04T12:43:21Z,42.805,6.029,13.2989,4.60049,2469.96,2020-7-04T14:44:07Z
2020-07-04T12:46:24Z,42.805,6.029,13.2982,4.60025,2469.947,2020-7-04T14:47:10Z
2020-07-04T12:49:28Z,42.805,6.029,13.2989,4.60064,2469.984,2020-7-04T14:50:14Z
2020-07-04T12:52:31Z,42.805,6.029,13.3009,4.60042,2469.923,2020-7-04T14:53:17Z
2020-07-04T12:55:34Z,42.805,6.029,13.2994,4.60029,2469.947,2020-7-04T14:56:20Z
2020-07-04T12:58:37Z,42.805,6.029,13.2992,4.60067,2469.937,2020-7-04T14:59:23Z
2020-07-04T13:01:41Z,42.805,6.029,13.2998,4.60068,2469.937,2020-7-04T15:02:26Z
2020-07-04T13:04:44Z,42.805,6.029,13.2993,4.60084,2469.923,2020-7-04T15:05:30Z
2020-07-04T13:07:47Z,42.805,6.029,13.3000,4.60075,2469.923,2020-7-04T15:08:33Z
2020-07-04T13:10:51Z,42.805,6.029,13.3014,4.60052,2469.914,2020-7-04T15:11:36Z
2020-07-04T13:13:54Z,42.805,6.029,13.3010,4.60061,2469.96,2020-7-04T15:14:40Z
2020-07-04T13:16:57Z,42.805,6.029,13.3009,4.60063,2469.914,2020-7-04T15:17:43Z
2020-07-04T13:20:00Z,42.805,6.029,13.2996,4.60069,2469.937,2020-7-04T15:20:46Z
2020-07-04T13:23:04Z,42.805,6.029,13.2988,4.60084,2469.937,2020-7-04T15:23:50Z
2020-07-04T13:26:07Z,42.805,6.029,13.2986,4.60057,2469.923,2020-7-04T15:26:53Z
2020-07-04T13:29:10Z,42.805,6.029,13.2988,4.60031,2469.96,2020-7-04T15:29:56Z
2020-07-04T13:32:13Z,42.805,6.029,13.2990,4.60048,2469.937,2020-7-04T15:32:59Z
2020-07-04T13:35:17Z,42.805,6.029,13.2990,4.60037,2469.984,2020-7-04T15:36:03Z
2020-07-04T13:38:20Z,42.805,6.029,13.2990,4.60054,2469.96,2020-7-04T15:39:06Z
2020-07-04T13:41:23Z,42.805,6.029,13.2993,4.60075,2469.947,2020-7-04T15:42:09Z
2020-07-04T13:44:26Z,42.805,6.029,13.3000,4.60040,2469.96,2020-7-04T15:45:12Z
2020-07-04T13:47:30Z,42.805,6.029,13.2982,4.60003,2469.914,2020-7-04T15:48:16Z
2020-07-04T13:50:33Z,42.805,6.029,13.2982,4.60032,2469.947,2020-7-04T15:51:19Z
2020-07-04T13:53:36Z,42.805,6.029,13.2991,4.60034,2469.937,2020-7-04T15:54:22Z
2020-07-04T13:56:39Z,42.805,6.029,13.2990,4.60040,2469.947,2020-7-04T15:57:25Z
2020-07-04T13:59:42Z,42.805,6.029,13.2991,4.60033,2469.947,2020-7-04T16:00:28Z
2020-07-04T14:02:46Z,42.805,6.029,13.3012,4.60070,2469.923,2020-7-04T16:03:32Z
2020-07-04T14:05:49Z,42.805,6.029,13.2993,4.60074,2469.96,2020-7-04T16:06:35Z
2020-07-04T14:08:52Z,42.805,6.029,13.2991,4.60069,2469.937,2020-7-04T16:09:38Z
2020-07-04T14:11:56Z,42.805,6.029,13.2996,4.60044,2469.947,2020-7-04T16:12:42Z
2020-07-04T14:14:59Z,42.805,6.029,13.3016,4.60050,2469.947,2020-7-04T16:15:45Z
2020-07-04T14:18:02Z,42.805,6.029,13.2987,4.60048,2469.97,2020-7-04T16:18:48Z
2020-07-04T14:21:05Z,42.805,6.029,13.2991,4.60040,2469.947,2020-7-04T16:21:51Z
2020-07-04T14:24:09Z,42.805,6.029,13.2999,4.60037,2469.923,2020-7-04T16:24:55Z
2020-07-04T14:27:12Z,42.805,6.029,13.2991,4.60038,2469.947,2020-7-04T16:27:58Z
2020-07-04T14:30:15Z,42.805,6.029,13.2982,4.60074,2469.97,2020-7-04T16:31:01Z
2020-07-04T14:33:18Z,42.805,6.029,13.2993,4.60060,2469.984,2020-7-04T16:34:04Z
2020-07-04T14:36:22Z,42.805,6.029,13.3003,4.60065,2469.947,2020-7-04T16:37:08Z
2020-07-04T14:39:25Z,42.805,6.029,13.3006,4.60027,2469.984,2020-7-04T16:40:11Z
2020-07-04T14:42:28Z,42.805,6.029,13.2979,4.60055,2469.96,2020-7-04T16:43:14Z
2020-07-04T14:45:31Z,42.805,6.029,13.2992,4.60072,2469.97,2020-7-04T16:46:17Z
2020-07-04T14:48:35Z,42.805,6.029,13.3003,4.60068,2470.007,2020-7-04T16:49:20Z
2020-07-04T14:51:38Z,42.805,6.029,13.3016,4.60027,2469.97,2020-7-04T16:52:24Z
2020-07-04T14:54:41Z,42.805,6.029,13.3038,4.60023,2469.984,2020-7-04T16:55:27Z
2020-07-04T14:57:44Z,42.805,6.029,13.3011,4.60048,2469.947,2020-7-04T16:58:30Z
2020-07-04T15:00:47Z,42.805,6.029,13.3018,4.60051,2469.97,2020-7-04T17:01:33Z
2020-07-04T15:03:51Z,42.805,6.029,13.3045,4.60061,2469.993,2020-7-04T17:04:36Z
2020-07-04T15:06:54Z,42.805,6.029,13.3041,4.60071,2469.97,2020-7-04T17:07:40Z
2020-07-04T15:09:57Z,42.805,6.029,13.3051,4.60024,2469.993,2020-7-04T17:10:43Z
2020-07-04T15:13:00Z,42.805,6.029,13.3013,4.60058,2469.993,2020-7-04T17:13:46Z
2020-07-04T15:16:04Z,42.805,6.029,13.3030,4.60049,2470.03,2020-7-04T17:16:50Z